Location: Fontenoy
(49.4072°N, 3.2008°E)
Time: 11:49:04
(UTC+00:00)

Cosmos 1937 Rocket - Pass Details

Date: 15 May 2026
Orbit: 743 x 774 km, 74.0° (Epoch: 8 June)

Event Time Altitude Azimuth Distance (km) Brightness Sun altitude
Rises 22:20:32 0° 339° (NNW) 3,206 8.4 -19.1°
Reaches altitude 10° 22:22:59 10° 344° (NNW) 2,275 7.2 -19.2°
Maximum altitude 22:28:00 51° 61° (ENE) 932 3.9 -19.5°
Enters shadow 22:30:09 31° 120° (ESE) 1,287 4.3 -19.6°
